Retour au catalogue

COSMOS 1729

ActifMilitaireHEO
NORAD 16527·PAYLOAD·🇷🇺 Russia

Lancé Feb 1, 1986 depuis Plesetsk Cosmodrome

Loading…

Prochains Passages (prochaines 24 heures)

TLE

FraisSource: Space-Track

Époque: Sep 14, 2026, 12:18 UTC

1 16527U 86011A   26257.51250190  .00000022  00000-0  00000-0 0  9996
2 16527  70.9459 185.8458 4586938  37.3326  86.5597  2.00604545297546

Suivez COSMOS 1729 en temps réel avec AllMySat

Download on the App Store